Starlink 5008

operational
NORAD ID: 53927 Int'l Des: 2022-119 Owner: SPXS Country: US Constellation: starlink
LEOCIRCULAR

About Starlink 5008

Description loading...

Live Position

Loading 3D Globe...

Upcoming Passes

Altitude History

Altitude vs Time

uPlot chart will show altitude changes over time

Two-Line Element Set

1 53927U 22119AT 25258.39627566 .00292746 00000-0 21980-2 0 9999
2 53927 53.1876 299.8566 0006070 334.7008 25.3713 15.71170167166506
Epoch: Sep 15, 2025 • Age: 17 hours

Current Status

Altitude 362.1 km
Velocity 7.70 km/s
Sub-Earth Point 52.91°N, 18.91°W
Launch Date Sep 24, 2022
Age 2.9 years
Type internet

Technical Details

Classification Payload
Mass 305.00 kg
Dry Mass 290.00 kg
Total Mass 305.00 kg
Length 0.20 m
Diameter 2.80 m
Span 9.00 m
Shape Box + pan
Manufacturer SPXS
Bus Type Starlink
Phase Status In Orbit
Owner/State SPXS/US

Large Constellations

Loading constellations...